OBJECT M, 47424

Orbit data source: Space-Track

You're viewing an uncataloged RSO

Recently launched and/or uncataloged RSOs may have evolving metadata. Metadata may include the following, but is not limited to: Owner, Manufacturer, Bus, Motor, and Mission.

OBJECT M, 47424 is a satellite in SSO that was launched on Sun, 24 Jan 2021 UTC launched from the Air Force Eastern Test Range (AFETR). Unknown objects in Earth's orbit typically refer to objects detected orbiting the Earth but have not yet been identified or cataloged. These objects could be anything from previously untracked satellites, spent rocket stages, debris from satellite collisions, or even natural meteoroids temporarily captured by Earth's gravity.

Loading next visibility...
Identifier
47424, 2021-006M
Orbit
SSO
Country
Flag of TBDTBD
Related business
Manufacturer
SpaceX/Seattle
Mission
Spacecraft
Bus & Motor
Unknown
Mass
~100 kg wet, ~100 kg dry
Launch date (UTC)
2021-01-24 (6 years ago)
Launch vehicle
Unknown
Launch site
Air Force Eastern Test Range (AFETR)
Object type
Unknown
Shape & HBR
Cyl, 3.5 m
Radar Cross Section
0.110 m², Medium (>0.1 m² and < 1m²)

Expand to show TLE details & history
Last TLE update: 6 hours ago

TLE from 6 hours ago
0 OBJECT M
1 47424U 21006M   26255.30474446  .00003785  00000-0  11660-3 0  9992
2 47424  97.2151 298.9971 0008631 244.8238 115.2111 15.34193338312954
Epoch: 2026-09-12T07:18Z
TLE epoch observation values (Epoch: 2026-09-12T07:18:49.921Z)
Latitude
0.00002°
Longitude
-162.02657°
Altitude
468.952 km
Speed
7.63 km/s
True Right ascension
19h 55m 59s
True Declination
0° 00' 00"
Sunlit
Object was in full shadow at epoch
Visualization orbit readout
Latitude
Unknown
Longitude
Unknown
Altitude
Unknown
Speed
Unknown
Apparent Right ascension
Unknown
Apparent Declination
Unknown
Sunlit
N/A
Visualization observer readout
Local Sidereal Time
05:19:09
Azimuth
Unknown
Elevation
Unknown
Doppler factor
Unknown
Orbital elements
Apogee altitude
466.159 km
Perigee altitude
454.354 km
Semi-major axis
6,838.393 km
Eccentricity
0.00086
Inclination
97.2151°
RAAN
298.9971°
Arg. of periapsis
244.8238°
True anomaly
115.30054°
Mean anomaly
115.2111°
Eccentric anomaly
115.25582°
Mean motion
3.83806 °/min
Orbital period
93.8 mins
BSTAR
0.0001166
Loading maneuver chart data...
Computing Atmospheric mass density...
Loading historical data...
Loading historical data...
Loading historical data...
Loading historical data...
Loading historical data...
Loading historical data...
Loading historical data...

Documentation

Showing up to 5 results
|